Location: Hilton Head Island
(32.2163°N, 80.7526°W)
Time: 03:12:34
(UTC-04:00)

Transit 2A Rocket - Pass Details

Date: 09 February 2026
Orbit: 583 x 900 km, 66.7° (Epoch: 11 March)

Event Time Altitude Azimuth Distance (km) Brightness Sun altitude
Rises 02:31:45 0° 351° (N) 3,365 - -58.6°
Reaches altitude 10° 02:35:16 10° 12° (NNE) 2,365 - -57.9°
Maximum altitude 02:38:33 16° 50° (NE) 1,907 - -57.3°
Drops below altitude 10° 02:41:40 10° 88° (E) 2,227 - -56.7°
Sets 02:44:49 0° 110° (ESE) 3,074 - -56.1°
